Home > Time Zones > World Clock > Weather > Iraq > Basra > Past weeks

Flag for Iraq Weather past 2 weeks in Basra, Iraq

Now
88 °F

Clear.


Feels Like: 102 °F
Forecast: 90 / 116 °F
Wind: No wind

Location: Abadan Airport

Current Time: Aug 5, 2015 at 2:05:44 AM

Latest Report: Aug 5, 2015 at 1:00 AM


Visibility: 10 mi

Pressure: 29.53 "Hg

Humidity: 75%

Dew point: 79 °F

Location of BasraLocation

Historic Weather in Basra — Graph

°F

Basra temperature yesterday

Maximum temperature yesterday: 117 °F (at 3:00 PM)
Minimum temperature yesterday: 90 °F (at 12:00 AM)
Average temperature yesterday: 100 °F

Past Weeks' High & Low Weather Summary

 TemperatureHumidityPressure
High120 °F (Jul 27, 2:00 PM)89% (Aug 4, 4:00 AM)29.56 "Hg (Aug 4, 4:00 AM)
Low84 °F (Jul 24, 5:00 AM)9% (Jul 24, 1:00 PM)29.36 "Hg (Jul 21, 1:00 AM)
Average101 °F36%29.46 "Hg
* Reported Jul 21 1:00 AM — Aug 5 1:00 AM, Basra, Weather by CustomWeather, © 2015

Note: Actual official high and low records may vary slightly from our data, if they occured in-between our weather recording intervals... More about our weather records

Advertising

Basra weather history for previous 24 hours

 ConditionsComfort  
Time TempWeatherWind HumidityBarometerVisibility
1:00 AM
Wed, Aug 5
88 °FClear.No wind75%29.53 "Hg10 mi
12:00 AM90 °FClear.No wind71%29.53 "Hg10 mi
11:00 PM
Tue, Aug 4
90 °FClear.No wind71%29.53 "Hg10 mi
10:00 PM90 °FClear.No wind71%29.53 "Hg10 mi
9:00 PM91 °FClear.5 mph63%29.53 "Hg10 mi
8:30 PM93 °FClear.7 mph56%29.53 "Hg10 mi
8:00 PM95 °FSunny.5 mph53%29.53 "Hg10 mi
7:30 PM97 °FSunny.7 mph47%29.50 "Hg10 mi
7:00 PM99 °FSunny.No wind44%29.50 "Hg10 mi
6:30 PM102 °FSunny.7 mph35%29.53 "Hg10 mi
6:00 PM104 °FSunny.12 mph33%29.53 "Hg10 mi
5:00 PM108 °FPassing clouds.14 mph30%29.53 "Hg4 mi
4:30 PM108 °FDuststorm.9 mph26%29.53 "Hg1 mi
4:00 PM109 °FDuststorm.7 mph25%29.53 "Hg1 mi
3:30 PM115 °FDuststorm.9 mph15%29.53 "Hg1 mi
3:00 PM117 °FDuststorm.16 mph15%29.50 "Hg1 mi
2:00 PM111 °FScattered clouds.14 mph27%29.53 "Hg4 mi
1:00 PM109 °FBroken clouds.18 mph18%29.56 "HgN/A
12:00 PM111 °FSunny.14 mph16%29.56 "Hg10 mi
11:00 AM108 °FClear.7 mph32%29.56 "Hg4 mi
10:00 AM104 °FClear.5 mph40%29.56 "Hg4 mi
9:00 AM99 °FClear.10 mph67%29.56 "Hg4 mi
8:00 AM95 °FClear.9 mph71%29.56 "Hg4 mi
7:00 AM91 °FHaze.5 mph80%29.56 "Hg2 mi
6:00 AM90 °FFog.5 mph89%29.53 "Hg2 mi
5:00 AM90 °FFog.5 mph84%29.53 "Hg2 mi
4:00 AM90 °FFog.12 mph89%29.53 "Hg3 mi
3:00 AM91 °FFog.5 mph84%29.53 "Hg3 mi
2:00 AM91 °FFog.7 mph80%29.53 "Hg3 mi
Weather by CustomWeather, © 2015

See weather overviewHow to use our weather pages